[[{"header":{"parameterUnit":"m.s-1","parameterCategory":1,"la1":30.2992,"la2":30.254,"lo1":-89.0895,"lo2":-89.0443,"dy":0.0025,"dx":0.0025,"nx":19,"ny":19,"refTime":"2026-03-09T21:00:00:Z","depth":0,"parameterNumber":2,"parameterNumberName":"U-component_of_WINDS"},"data":[0,0,0,-1.9908,-1.9909,-1.9961,-1.9961,-2.0032,-2.0033,0,0,0,0,0,0,0,0,0,0,0,-1.9894,-1.9894,-1.9908,-1.9909,-1.9961,-1.9961,-2.0032,-2.0033,0,0,0,0,0,0,0,0,0,0,0,-1.9894,-1.9894,-1.9895,-1.9909,-1.9961,-1.9961,-2.0032,-1.9991,0,0,0,0,0,0,0,0,0,0,-1.994,-1.9928,-1.9894,-1.9895,-1.991,-1.9961,-1.9961,-1.9989,-1.9994,-2.001,0,-2.0023,0,-2.0029,-2.0038,-2.0038,0,0,0,-1.9909,-1.9925,-1.9937,-1.9895,-1.991,-1.9961,-1.9937,-1.9992,-1.9997,-2.0016,-2.0024,-2.0027,-2.003,-2.0038,-2.0038,-2.0129,-2.0129,0,0,-1.9906,-1.9904,-1.9934,-1.994,-1.9931,-1.9936,-1.9939,-1.9995,-2.0005,-2.0025,-2.0029,-2.0031,-2.0038,-2.0039,-2.0128,-2.0129,0,0,0,-1.9898,-1.9902,-1.9913,-1.9938,-1.9946,-1.9937,-1.9941,-2.0002,-2.0006,-2.0029,-2.0032,-2.0039,-2.004,-2.0128,-2.0129,-2.0148,0,0,0,-1.9896,-1.9898,-1.9912,-1.9912,-1.9945,-1.9975,-1.9947,-2.0002,-2.0008,-2.0032,-2.0039,-2.0041,-2.0127,-2.0128,-2.0146,-2.0157,0,0,0,-1.989,-1.9897,-1.9905,-1.9912,-1.9934,-1.9974,-1.9981,-2.0003,-2.001,-2.0038,-2.0041,-2.0127,-2.0128,-2.0145,-2.0155,-2.018,0,0,0,-1.9884,-1.9923,-1.9905,-1.995,-1.9933,-1.9985,-1.998,-2.0019,-2.0046,-2.0039,-2.0128,-2.0129,-2.0144,-2.0154,-2.0178,-2.0199,-2.0208,0,0,-1.9932,-1.9929,-1.9955,-1.9941,-1.9995,-1.9977,-2.0035,-2.0061,-2.0066,-2.0108,-2.011,-2.0147,-2.0155,-2.0179,-2.026,-2.0267,0,0,0,-1.997,-1.9989,-2.0004,-2.0027,-2.0047,-2.0065,-2.0083,-2.0092,-2.0127,-2.0087,-2.0163,-2.0168,-2.0182,-2.0192,-2.0198,-2.021,-2.0133,-2.0133,-2.0133,-2.0037,-2.004,-2.0083,-2.0092,-2.0115,-2.0132,-2.0151,-2.0168,-2.0165,-2.0183,-2.0195,-2.0244,-2.0255,-2.026,-2.0272,-2.0207,-2.0208,-2.0208,-2.0208,-2.0108,-2.0135,-2.0128,-2.0168,-2.0171,-2.0205,-2.0223,-2.022,-2.0253,-2.0235,-2.0248,-2.0227,-2.0267,-2.0279,-2.0209,-2.0209,-2.0209,-2.0209,-2.0208,-2.0152,-2.0165,-2.0175,-2.0208,-2.0234,-2.0243,-2.0273,-2.0276,-2.0279,-2.0291,-2.0304,-2.0303,-2.0303,-2.0297,-2.0297,-2.0297,-2.0298,-2.0298,-2.0298,-2.0193,-2.0203,-2.0228,-2.0251,-2.0266,-2.0286,-2.0303,-2.0318,-2.0336,-2.0335,-2.0335,-2.033,-2.0271,-2.0255,-2.03,-2.03,-2.03,-2.0299,-2.0299,-2.0262,-2.0246,-2.0285,-2.0299,-2.0326,-2.0352,-2.0354,-2.0384,-2.0398,-2.0413,-2.0405,-2.0361,-2.0358,-2.0353,-2.034,-2.0405,-2.0405,-2.0405,-2.0405,-2.0298,-2.0297,-2.0335,-2.0358,-2.0382,-2.0387,-2.0431,-2.0444,-2.0456,-2.0464,-2.0456,-2.0439,-2.0434,-2.0434,-2.0428,-2.0415,-2.0498,-2.0498,-2.0498,-2.0341,-2.0341,-2.0377,-2.0386,-2.0407,-2.0426,-2.0467,-2.0495,-2.0505,-2.0502,-2.0471,-2.0467,-2.044,-2.0431,-2.0427,-2.0417,-2.0394,0,0]},{"header":{"parameterUnit":"m.s-1","parameterCategory":1,"la1":30.2992,"la2":30.254,"lo1":-89.0895,"lo2":-89.0443,"dy":0.0025,"dx":0.0025,"nx":19,"ny":19,"refTime":"2026-03-09T21:00:00:Z","depth":0,"parameterNumber":3,"parameterNumberName":"V-component_of_WINDS"},"data":[0,0,0,2.4809,2.481,2.486,2.486,2.4918,2.4918,0,0,0,0,0,0,0,0,0,0,0,2.4788,2.4789,2.4809,2.481,2.486,2.486,2.4918,2.4918,0,0,0,0,0,0,0,0,0,0,0,2.4788,2.4788,2.4789,2.481,2.486,2.486,2.4918,2.4883,0,0,0,0,0,0,0,0,0,0,2.4835,2.481,2.4788,2.4789,2.481,2.486,2.486,2.4881,2.4885,2.4892,0,2.4896,0,2.4908,2.4922,2.4922,0,0,0,2.4814,2.4807,2.4826,2.4789,2.4811,2.486,2.4838,2.4883,2.4887,2.4897,2.4897,2.4899,2.4909,2.4922,2.4922,2.4949,2.4949,0,0,2.4811,2.4795,2.4823,2.4828,2.4818,2.4837,2.484,2.4886,2.4885,2.4897,2.4901,2.491,2.4922,2.4923,2.4949,2.4949,0,0,0,2.48,2.4792,2.481,2.4826,2.4835,2.4838,2.4842,2.4883,2.489,2.4901,2.4911,2.4923,2.4923,2.4949,2.4949,2.4928,0,0,0,2.4799,2.4786,2.4809,2.4799,2.4834,2.4859,2.4837,2.4887,2.4892,2.491,2.4923,2.4924,2.4949,2.4949,2.4929,2.4922,0,0,0,2.4787,2.4785,2.479,2.4798,2.4819,2.4859,2.4869,2.4888,2.4898,2.4922,2.4924,2.4949,2.4949,2.493,2.4923,2.4924,0,0,0,2.4769,2.4771,2.4789,2.4795,2.4818,2.4845,2.4869,2.489,2.4908,2.4923,2.4949,2.4949,2.493,2.4923,2.4925,2.4923,2.492,0,0,2.4762,2.4769,2.4774,2.4792,2.4812,2.4839,2.4857,2.4889,2.4908,2.4934,2.4935,2.4929,2.4923,2.4925,2.4911,2.4909,0,0,0,2.4766,2.4769,2.4778,2.4794,2.4819,2.4841,2.4873,2.4886,2.4909,2.4917,2.493,2.4927,2.4929,2.4929,2.4927,2.493,2.4948,2.4948,2.4948,2.473,2.4753,2.4763,2.4793,2.4809,2.4843,2.4859,2.4883,2.4901,2.4904,2.4912,2.4901,2.49,2.4898,2.4901,2.4912,2.4912,2.4912,2.4912,2.4721,2.473,2.4756,2.4775,2.48,2.4817,2.4851,2.4864,2.4885,2.4896,2.4899,2.4909,2.4895,2.4899,2.4911,2.4911,2.4911,2.4912,2.4912,2.47,2.4709,2.4724,2.4752,2.4772,2.4803,2.4822,2.4845,2.4867,2.4869,2.4881,2.4882,2.4886,2.4874,2.4874,2.4874,2.4874,2.4873,2.4873,2.4672,2.4691,2.4703,2.4732,2.4747,2.477,2.4806,2.4822,2.4846,2.4861,2.4862,2.4881,2.4889,2.4891,2.4873,2.4873,2.4873,2.4873,2.4873,2.4655,2.4663,2.4682,2.4697,2.4734,2.4754,2.4783,2.4814,2.4831,2.484,2.486,2.4862,2.4871,2.4873,2.4875,2.4854,2.4854,2.4854,2.4854,2.4638,2.4645,2.4671,2.4694,2.4719,2.4749,2.4773,2.4802,2.4834,2.4847,2.4854,2.4858,2.4859,2.4868,2.487,2.4872,2.485,2.485,2.485,2.4629,2.464,2.4654,2.4685,2.4717,2.4744,2.4768,2.4795,2.4833,2.4851,2.4858,2.4858,2.4865,2.4866,2.4882,2.4884,2.4888,0,0]}]]